Regional Weather Roundup
Issued by NWS

Home | Current Version | Previous Version | Text Only | Print | Product List | Glossary Off
Versions: 1 2 3 4 5 6 7 8 9 10 11 12 13 14 15 16 17 18 19 20 21 22 23 24 25 26 27 28 29 30 31 32 33 34 35 36 37 38 39 40 41 42 43 44 45 46 47 48 49 50

000
ASUS43 KLSX 121707
RWRMO

WEATHER SUMMARY FOR MISSOURI
NATIONAL WEATHER SERVICE SPRINGFIELD MO
1200 PM CDT SAT JUL 12 2014

NOTE: "FAIR" INDICATES FEW OR NO CLOUDS BELOW 12,000 FEET WITH NO
       SIGNIFICANT WEATHER AND/OR OBSTRUCTIONS TO VISIBILITY.
       CURRENT SKY AND/OR WEATHER CONDITIONS ARE NOT AVAILABLE FOR
       CHILLICOTHE AND FARMINGTON.

MOZ001>031-035>038-043-044-053-054-121800-
...NORTHERN AND WESTERN MISSOURI...

CITY           SKY/WX    TMP DP  RH WIND       PRES   REMARKS
KANSAS CTY INT PTSUNNY   86  71  60 SW12      30.04F HX  91
KANSAS C DTWN  PTSUNNY   89  69  51 S13G21    30.03F HX  93
LEE`S SUMMIT   PTSUNNY   86  69  56 SW14      30.07S HX  90
ST JOSEPH      MOSUNNY   86  71  60 SW9       30.01F HX  91
CHILLICOTHE      N/A     86  71  60 VRB5      30.04F HX  91
KIRKSVILLE     CLOUDY    85  73  67 SW7       30.06S HX  91

$$
MOZ066>068-077>081-088>096-101>105-121800-
...SOUTHWEST MISSOURI...

CITY           SKY/WX    TMP DP  RH WIND       PRES   REMARKS
SPRINGFIELD    MOSUNNY   87  67  51 W16       30.14F HX  90
JOPLIN         MOSUNNY   91  64  40 SW17G24   30.12S HX  92

$$
MOZ032>034-039>042-045>050-055>058-069>072-121800-
...CENTRAL MISSOURI...

CITY           SKY/WX    TMP DP  RH WIND       PRES   REMARKS
COLUMBIA       PTSUNNY   87  71  58 SW12      30.09S HX  93
JEFFERSON CITY MOSUNNY   88  69  53 SW12G20   30.07F HX  92
ROLLA          MOSUNNY   89  67  47 SW12      30.11F HX  92
SEDALIA        PTSUNNY   87  71  58 SW13      30.09S HX  93
OSAGE BEACH    MOSUNNY   88  70  55 W10       30.11S HX  92

$$
MOZ051-052-059>065-121800-
...EAST CENTRAL MISSOURI...

CITY           SKY/WX    TMP DP  RH WIND       PRES   REMARKS
ST LOUIS INTL  PTSUNNY   90  72  55 SW14      30.10S HX  97
SPIRIT OF STL  MOSUNNY   90  72  55 SW8       30.07F HX  97
ST CHARLES     PTSUNNY   85  73  67 VRB7      30.08S HX  91

$$
MOZ072>076-082>087-097>100-106>115-121800-
...SOUTH CENTRAL AND SOUTHEAST MISSOURI...

CITY           SKY/WX    TMP DP  RH WIND       PRES   REMARKS
CAPE GIRARDEAU MOSUNNY   88  75  65 SW8       30.12F HX  97
FARMINGTON     SUNNY     88  70  55 W8        30.15S HX  92
POPLAR BLUFF   MOSUNNY   87  74  64 S8        30.12S HX  95
WEST PLAINS    SUNNY     86  69  56 W12       30.18S HX  90

$$



USA.gov is the U.S. government's official web portal to all federal, state and local government web resources and services.